User: anonymous   Login
Location: *
(49.3500°N, 12.6000°E)
Time: 13:46:19
(UTC+00:00)
Language:

YAOGAN 1 - Orbit

View from above orbital plane
View from above orbital plane
View from above satellite
View from above satellite

Ground track
Ground track

The orbit data is extracted from the following two-line orbital elements,

1 29092U 06015A   19340.61102318 +.00000029 +00000-0 +10087-4 0  9994
2 29092 097.9577 000.9823 0001449 090.9431 269.1948 14.83029263736007
Epoch (UTC): 06 December 2019 14:39:52
Eccentricity: 0.0001449
inclination: 97.9577°
perigee height: 619 km
apogee height: 621 km
right ascension of ascending node: 0.9823°
argument of perigee: 90.9431°
revolutions per day: 14.83029263
mean anomaly at epoch: 269.1948°
orbit number at epoch: 73600

The dashed part of the orbit path shows where the satellite is in the earth's shadow,  

DLR